N8YZF Weather Reports


Display with metric or nautical units.
time (UTC)temp
F
wind
direction
speed
MPH
gust
MPH
rain 1hr
in
rain 24hr
in
rain mn
in
humidity
%
barometer
mb
20170925202816 89 202 2.0 8.0 0.00 0.00 0.00 32 1014.0
20170925202257 89 198 2.0 8.0 0.00 0.00 0.00 32 1014.0
20170925201720 89 184 3.0 0.0 0.00 0.00 0.00 32 1014.0
20170925200200 89 199 2.0 10.0 0.00 0.00 0.00 31 1014.2
20170925195611 89 196 3.0 9.0 0.00 0.00 0.00 32 1014.4
20170925195035 89 170 3.0 9.0 0.00 0.00 0.00 32 1014.4
20170925194451 89 117 3.0 9.0 0.00 0.00 0.00 31 1014.4
20170925193915 89 173 4.0 12.0 0.00 0.00 0.00 31 1014.4
20170925193344 90 140 2.0 6.0 0.00 0.00 0.00 32 1014.4
20170925192813 90 155 2.0 9.0 0.00 0.00 0.00 32 1014.4
20170925192308 90 186 3.0 12.0 0.00 0.00 0.00 33 1014.4
20170925191733 90 160 4.0 12.0 0.00 0.00 0.00 32 1014.4
20170925191139 90 105 3.0 9.0 0.00 0.00 0.00 32 1014.6
20170925190540 90 117 1.0 8.0 0.00 0.00 0.00 32 1014.7
20170925190021 90 155 0.0 0.0 0.00 0.00 0.00 33 1014.7
20170925185519 90 130 0.0 0.0 0.00 0.00 0.00 34 1015.0
20170925184948 89 144 1.0 9.0 0.00 0.00 0.00 33 1015.0
20170925184401 89 145 2.0 9.0 0.00 0.00 0.00 33 1015.0
20170925183815 90 137 0.0 4.0 0.00 0.00 0.00 32 1015.0
20170925183307 90 126 0.0 4.0 0.00 0.00 0.00 33 1015.0
20170925182753 90 213 1.0 0.0 0.00 0.00 0.00 32 1015.2
20170925182216 90 221 1.0 8.0 0.00 0.00 0.00 31 1015.2
20170925181642 90 215 0.0 2.0 0.00 0.00 0.00 30 1015.2
20170925181052 89 207 1.0 2.0 0.00 0.00 0.00 31 1015.5
20170925180001 89 180 2.0 5.0 0.00 0.00 0.00 34 1015.5
20170925175428 88 134 1.0 5.0 0.00 0.00 0.00 32 1015.5
20170925174851 88 190 0.0 0.0 0.00 0.00 0.00 32 1015.5
20170925174250 88 193 1.0 4.0 0.00 0.00 0.00 30 1015.9
20170925173714 88 205 3.0 11.0 0.00 0.00 0.00 31 1015.9
20170925173142 88 216 1.0 11.0 0.00 0.00 0.00 34 1015.9
20170925172556 88 163 1.0 2.0 0.00 0.00 0.00 34 1015.8
20170925172028 88 194 2.0 7.0 0.00 0.00 0.00 34 1015.8
20170925171433 88 178 2.0 11.0 0.00 0.00 0.00 35 1015.9
20170925170826 89 182 1.0 8.0 0.00 0.00 0.00 36 1015.9
20170925170322 88 155 1.0 8.0 0.00 0.00 0.00 38 1015.9
20170925165810 88 193 0.0 0.0 0.00 0.00 0.00 38 1016.0
20170925165238 87 208 0.0 0.0 0.00 0.00 0.00 38 1015.9
20170925164659 87 262 0.0 0.0 0.00 0.00 0.00 39 1015.9
20170925164114 87 218 0.0 0.0 0.00 0.00 0.00 38 1016.2
20170925163535 86 210 0.0 0.0 0.00 0.00 0.00 40 1016.2
20170925162947 86 207 0.0 0.0 0.00 0.00 0.00 39 1016.3
20170925162412 86 210 0.0 5.0 0.00 0.00 0.00 39 1016.3
20170925161839 87 204 0.0 5.0 0.00 0.00 0.00 39 1016.3
20170925161324 86 199 0.0 0.0 0.00 0.00 0.00 40 1016.2
20170925160752 85 198 0.0 0.0 0.00 0.00 0.00 43 1016.2
20170925160217 85 198 0.0 0.0 0.00 0.00 0.00 44 1016.2
20170925155628 85 194 0.0 0.0 0.00 0.00 0.00 47 1016.3
20170925155052 84 194 0.0 0.0 0.00 0.00 0.00 48 1016.2
20170925154512 83 194 0.0 0.0 0.00 0.00 0.00 48 1016.2
20170925154009 83 190 0.0 0.0 0.00 0.00 0.00 52 1016.2
20170925153434 82 190 0.0 0.0 0.00 0.00 0.00 55 1016.1
20170925152817 81 190 0.0 0.0 0.00 0.00 0.00 55 1016.1
20170925152248 81 189 0.0 0.0 0.00 0.00 0.00 58 1016.0
20170925151711 80 189 0.0 0.0 0.00 0.00 0.00 61 1016.0
20170925151123 79 189 0.0 0.0 0.00 0.00 0.00 64 1016.0
20170925150530 78 189 0.0 0.0 0.00 0.00 0.00 64 1016.0
20170925145940 78 188 0.0 1.0 0.00 0.00 0.00 65 1016.2
20170925145402 77 187 0.0 1.0 0.00 0.00 0.00 67 1016.2
20170925144813 76 186 0.0 0.0 0.00 0.00 0.00 69 1016.1
20170925144227 76 187 0.0 6.0 0.00 0.00 0.00 70 1016.2
20170925143649 75 177 0.0 6.0 0.00 0.00 0.00 71 1016.2
20170925143115 74 175 0.0 0.0 0.00 0.00 0.00 75 1016.1
20170925142529 73 175 0.0 1.0 0.00 0.00 0.00 76 1016.1
20170925141956 73 174 0.0 1.0 0.00 0.00 0.00 78 1016.0
20170925141359 72 175 0.0 0.0 0.00 0.00 0.00 80 1015.9
20170925140826 70 175 0.0 0.0 0.00 0.00 0.00 86 1015.9
20170925140312 69 174 0.0 0.0 0.00 0.00 0.00 88 1015.7
20170925135734 67 175 0.0 0.0 0.00 0.00 0.00 91 1015.7
20170925135201 66 175 0.0 0.0 0.00 0.00 0.00 94 1015.7
20170925134628 65 174 0.0 0.0 0.00 0.00 0.00 97 1015.6
20170925134036 64 175 0.0 0.0 0.00 0.00 0.00 98 1015.6
20170925133505 63 175 0.0 0.0 0.00 0.00 0.00 98 1015.5
20170925132914 63 175 0.0 0.0 0.00 0.00 0.00 98 1015.5
20170925132339 62 175 0.0 0.0 0.00 0.00 0.00 98 1015.4
20170925131821 62 175 0.0 0.0 0.00 0.00 0.00 98 1015.4
20170925131259 60 174 0.0 0.0 0.00 0.00 0.00 98 1015.3
20170925130708 60 175 0.0 0.0 0.00 0.00 0.00 98 1015.2
20170925130132 59 174 0.0 0.0 0.00 0.00 0.00 98 1015.2
20170925125541 58 174 0.0 0.0 0.00 0.00 0.00 98 1015.1
20170925125006 57 174 0.0 0.0 0.00 0.00 0.00 98 1015.0
20170925124418 57 174 0.0 0.0 0.00 0.00 0.00 98 1015.0
20170925123817 56 174 0.0 0.0 0.00 0.00 0.00 98 1015.0
20170925123315 55 174 0.0 0.0 0.00 0.00 0.00 98 1014.9
20170925122813 55 174 0.0 0.0 0.00 0.00 0.00 97 1014.9
20170925122245 55 174 0.0 0.0 0.00 0.00 0.00 97 1014.9
20170925121712 54 174 0.0 0.0 0.00 0.00 0.00 97 1014.8
20170925121119 54 174 0.0 0.0 0.00 0.00 0.00 97 1014.8
20170925120528 54 174 0.0 0.0 0.00 0.00 0.00 97 1014.8
20170925115934 54 174 0.0 0.0 0.00 0.00 0.00 97 1014.7
20170925115400 54 174 0.0 0.0 0.00 0.00 0.00 97 1014.7
20170925114809 54 174 0.0 0.0 0.00 0.00 0.00 97 1014.7
20170925114223 54 174 0.0 0.0 0.00 0.00 0.00 97 1014.5
20170925113649 54 174 0.0 0.0 0.00 0.00 0.00 97 1014.5
20170925113113 54 174 0.0 0.0 0.00 0.00 0.00 97 1014.5
20170925112526 54 174 0.0 0.0 0.00 0.00 0.00 97 1014.5
20170925111951 54 174 0.0 0.0 0.00 0.00 0.00 97 1014.5
20170925111358 54 174 0.0 0.0 0.00 0.00 0.00 97 1014.4
20170925110755 54 174 0.0 0.0 0.00 0.00 0.00 97 1014.4
20170925110216 54 174 0.0 0.0 0.00 0.00 0.00 97 1014.4
20170925105632 54 174 0.0 0.0 0.00 0.00 0.00 97 1014.3
20170925105057 54 174 0.0 0.0 0.00 0.00 0.00 96 1014.3
20170925104508 54 174 0.0 0.0 0.00 0.00 0.00 96 1014.2
20170925103939 54 174 0.0 0.0 0.00 0.00 0.00 96 1014.3
20170925103357 54 174 0.0 0.0 0.00 0.00 0.00 96 1014.3
20170925102754 55 174 0.0 0.0 0.00 0.00 0.00 96 1014.3
20170925102220 55 174 0.0 0.0 0.00 0.00 0.00 96 1014.3
20170925101649 55 174 0.0 0.0 0.00 0.00 0.00 97 1014.3
20170925101100 55 174 0.0 0.0 0.00 0.00 0.00 96 1014.2
20170925100510 55 174 0.0 0.0 0.00 0.00 0.00 96 1014.2
20170925095918 55 174 0.0 0.0 0.00 0.00 0.00 96 1014.2
20170925095347 55 174 0.0 0.0 0.00 0.00 0.00 96 1014.2
20170925094736 55 174 0.0 0.0 0.00 0.00 0.00 97 1014.2
20170925094145 55 174 0.0 0.0 0.00 0.00 0.00 96 1014.2
20170925093611 55 174 0.0 0.0 0.00 0.00 0.00 96 1014.2
20170925093017 55 174 0.0 0.0 0.00 0.00 0.00 96 1014.3
20170925092452 56 174 0.0 0.0 0.00 0.00 0.00 96 1014.3
20170925091911 56 174 0.0 0.0 0.00 0.00 0.00 96 1014.3
20170925091305 56 174 0.0 0.0 0.00 0.00 0.00 96 1014.4
20170925090711 56 174 0.0 0.0 0.00 0.00 0.00 96 1014.4
20170925090131 56 174 0.0 0.0 0.00 0.00 0.00 96 1014.4
20170925085542 56 174 0.0 0.0 0.00 0.00 0.00 96 1014.4
20170925085014 56 174 0.0 0.0 0.00 0.00 0.00 96 1014.4
20170925084423 56 174 0.0 0.0 0.00 0.00 0.00 96 1014.4
20170925083822 56 174 0.0 0.0 0.00 0.00 0.00 96 1014.4
20170925083257 56 174 0.0 0.0 0.00 0.00 0.00 96 1014.4
20170925082705 56 174 0.0 0.0 0.00 0.00 0.00 96 1014.4
20170925082128 56 174 0.0 0.0 0.00 0.00 0.00 96 1014.4
20170925081555 56 174 0.0 0.0 0.00 0.00 0.00 96 1014.4
20170925080946 57 174 0.0 0.0 0.00 0.00 0.00 96 1014.4
20170925080410 57 174 0.0 0.0 0.00 0.00 0.00 96 1014.5
20170925075801 57 174 0.0 0.0 0.00 0.00 0.00 96 1014.5
20170925075224 57 174 0.0 0.0 0.00 0.00 0.00 96 1014.5
20170925074655 57 174 0.0 0.0 0.00 0.00 0.00 96 1014.5
20170925074102 57 174 0.0 0.0 0.00 0.00 0.00 96 1014.5
20170925073522 57 174 0.0 0.0 0.00 0.00 0.00 96 1014.5
20170925073008 57 174 0.0 0.0 0.00 0.00 0.00 96 1014.5
20170925072501 57 174 0.0 0.0 0.00 0.00 0.00 96 1014.5
20170925071919 58 174 0.0 0.0 0.00 0.00 0.00 96 1014.5
20170925071313 58 174 0.0 0.0 0.00 0.00 0.00 96 1014.6
20170925070722 58 174 0.0 0.0 0.00 0.00 0.00 96 1014.6
20170925070147 58 174 0.0 0.0 0.00 0.00 0.00 95 1014.6
20170925065553 58 174 0.0 0.0 0.00 0.00 0.00 96 1014.7
20170925065020 58 174 0.0 0.0 0.00 0.00 0.00 95 1014.7
20170925064433 58 174 0.0 0.0 0.00 0.00 0.00 95 1014.7
20170925063901 58 174 0.0 0.0 0.00 0.00 0.00 95 1014.7
20170925063319 58 174 0.0 0.0 0.00 0.00 0.00 95 1014.7
20170925062810 58 174 0.0 0.0 0.00 0.00 0.00 95 1014.7
20170925062302 58 174 0.0 0.0 0.00 0.00 0.00 95 1014.7
20170925061730 58 174 0.0 0.0 0.00 0.00 0.00 95 1014.8
20170925061133 59 174 0.0 0.0 0.00 0.00 0.00 95 1014.8
20170925060541 59 174 0.0 0.0 0.00 0.00 0.00 95 1014.8
20170925055951 59 174 0.0 0.0 0.00 0.00 0.00 95 1014.9
20170925055418 59 174 0.0 0.0 0.00 0.00 0.00 95 1014.9
20170925054845 59 174 0.0 0.0 0.00 0.00 0.00 94 1014.9
20170925054239 59 174 0.0 0.0 0.00 0.00 0.00 94 1014.7
20170925053706 59 174 0.0 0.0 0.00 0.00 0.00 94 1014.7
20170925053135 60 174 0.0 0.0 0.00 0.00 0.00 94 1014.7
20170925052545 60 174 0.0 0.0 0.00 0.00 0.00 93 1014.7
20170925052010 60 174 0.0 0.0 0.00 0.00 0.00 93 1014.8
20170925051508 60 174 0.0 0.0 0.00 0.00 0.00 93 1014.8
20170925050929 60 174 0.0 0.0 0.00 0.00 0.00 93 1014.8
20170925050354 61 174 0.0 0.0 0.00 0.00 0.00 93 1014.8
20170925045753 61 174 0.0 0.0 0.00 0.00 0.00 94 1015.0
20170925045221 61 174 0.0 0.0 0.00 0.00 0.00 94 1015.0
20170925044648 61 174 0.0 0.0 0.00 0.00 0.00 94 1015.0
20170925044055 61 174 0.0 0.0 0.00 0.00 0.00 94 1015.1
20170925043522 61 174 0.0 0.0 0.00 0.00 0.00 93 1015.1
20170925043018 61 174 0.0 0.0 0.00 0.00 0.00 93 1015.1
20170925042459 62 174 0.0 0.0 0.00 0.00 0.00 93 1015.2
20170925041931 62 174 0.0 0.0 0.00 0.00 0.00 93 1015.2
20170925041325 62 174 0.0 0.0 0.00 0.00 0.00 93 1015.2
20170925040820 62 174 0.0 0.0 0.00 0.00 0.00 93 1015.2
20170925040314 62 174 0.0 0.0 0.00 0.00 0.00 92 1015.2
20170925035720 62 174 0.0 0.0 0.00 0.00 0.00 92 1015.3
20170925035144 62 174 0.0 0.0 0.00 0.00 0.00 92 1015.3
20170925034608 63 174 0.0 0.0 0.00 0.00 0.00 91 1015.4
20170925034014 63 174 0.0 0.0 0.00 0.00 0.00 91 1015.4
20170925033440 63 174 0.0 0.0 0.00 0.00 0.00 91 1015.4
20170925032845 63 174 0.0 0.0 0.00 0.00 0.00 91 1015.4
20170925032256 64 174 0.0 0.0 0.00 0.00 0.00 91 1015.4
20170925031721 64 174 0.0 0.0 0.00 0.00 0.00 90 1015.4
20170925031144 64 174 0.0 0.0 0.00 0.00 0.00 90 1015.4
20170925030547 64 174 0.0 0.0 0.00 0.00 0.00 90 1015.4
20170925030000 64 174 0.0 0.0 0.00 0.00 0.00 89 1015.4
20170925025428 64 174 0.0 0.0 0.00 0.00 0.00 89 1015.5
20170925024851 65 174 0.0 0.0 0.00 0.00 0.00 88 1015.5
20170925024248 65 174 0.0 0.0 0.00 0.00 0.00 88 1015.5
20170925023709 65 174 0.0 0.0 0.00 0.00 0.00 87 1015.5
20170925023136 66 174 0.0 0.0 0.00 0.00 0.00 87 1015.6
20170925022534 66 174 0.0 0.0 0.00 0.00 0.00 86 1015.6
20170925022004 66 174 0.0 0.0 0.00 0.00 0.00 86 1015.6
20170925021415 66 174 0.0 0.0 0.00 0.00 0.00 86 1015.6
20170925020809 67 174 0.0 0.0 0.00 0.00 0.00 85 1015.6
20170925020235 67 174 0.0 0.0 0.00 0.00 0.00 84 1015.6
20170925015644 67 174 0.0 0.0 0.00 0.00 0.00 84 1015.6
20170925015115 68 174 0.0 0.0 0.00 0.00 0.00 83 1015.6
20170925014520 68 174 0.0 0.0 0.00 0.00 0.00 82 1015.5
20170925013948 68 174 0.0 0.0 0.00 0.00 0.00 82 1015.6
20170925013416 69 174 0.0 0.0 0.00 0.00 0.00 81 1015.6
20170925012808 69 174 0.0 0.0 0.00 0.00 0.00 80 1015.5
20170925012237 69 174 0.0 0.0 0.00 0.00 0.00 79 1015.5
20170925011703 70 174 0.0 0.0 0.00 0.00 0.00 78 1015.6
20170925011110 70 174 0.0 0.0 0.00 0.00 0.00 77 1015.5
20170925010528 71 174 0.0 0.0 0.00 0.00 0.00 76 1015.5
20170925005943 71 174 0.0 0.0 0.00 0.00 0.00 75 1015.4
20170925005408 72 174 0.0 0.0 0.00 0.00 0.00 74 1015.5
20170925004808 72 174 0.0 0.0 0.00 0.00 0.00 73 1015.5
20170925004228 73 174 0.0 0.0 0.00 0.00 0.00 72 1015.4
20170925003652 73 174 0.0 0.0 0.00 0.00 0.00 71 1015.5
20170925003118 74 174 0.0 0.0 0.00 0.00 0.00 69 1015.5
20170925002527 74 174 0.0 0.0 0.00 0.00 0.00 69 1015.6
20170925001958 75 174 0.0 0.0 0.00 0.00 0.00 67 1015.6
20170925001405 76 174 0.0 0.0 0.00 0.00 0.00 64 1015.7
20170925000819 77 174 0.0 0.0 0.00 0.00 0.00 62 1015.7
20170925000307 78 174 0.0 0.0 0.00 0.00 0.00 61 1015.7
20170924235807 78 174 0.0 0.0 0.00 0.00 0.00 59 1015.7
20170924235308 79 174 0.0 0.0 0.00 0.00 0.00 58 1015.8
20170924234736 80 174 0.0 0.0 0.00 0.00 0.00 56 1015.8
20170924234148 81 174 0.0 0.0 0.00 0.00 0.00 56 1015.9
20170924233612 82 174 0.0 0.0 0.00 0.00 0.00 53 1015.9
20170924233039 82 174 0.0 0.0 0.00 0.00 0.00 51 1015.9
20170924232445 83 171 0.0 0.0 0.00 0.00 0.00 47 1016.0
20170924231910 84 171 0.0 0.0 0.00 0.00 0.00 47 1016.1
20170924231306 85 171 0.0 0.0 0.00 0.00 0.00 47 1015.9
20170924230715 86 171 0.0 0.0 0.00 0.00 0.00 44 1016.0
20170924230143 87 171 0.0 0.0 0.00 0.00 0.00 41 1016.0
20170924225557 87 171 0.0 0.0 0.00 0.00 0.00 40 1016.0
20170924225021 87 171 0.0 0.0 0.00 0.00 0.00 39 1016.1
20170924224431 88 171 0.0 0.0 0.00 0.00 0.00 39 1016.0
20170924223857 88 171 0.0 0.0 0.00 0.00 0.00 38 1016.0
20170924223332 88 171 0.0 0.0 0.00 0.00 0.00 38 1016.0
20170924222809 88 190 0.0 0.0 0.00 0.00 0.00 37 1016.1
20170924222244 88 190 0.0 1.0 0.00 0.00 0.00 37 1016.1
20170924221710 88 198 0.0 2.0 0.00 0.00 0.00 36 1016.1
20170924221114 89 169 0.0 5.0 0.00 0.00 0.00 36 1016.0
20170924220526 90 203 0.0 5.0 0.00 0.00 0.00 34 1016.1
20170924215930 90 180 1.0 5.0 0.00 0.00 0.00 35 1016.0
20170924215317 90 130 2.0 7.0 0.00 0.00 0.00 34 1016.0
20170924214810 90 156 2.0 6.0 0.00 0.00 0.00 34 1016.0
20170924214313 90 186 2.0 6.0 0.00 0.00 0.00 34 1016.1
20170924213735 91 141 1.0 5.0 0.00 0.00 0.00 33 1016.1
20170924213202 91 190 3.0 7.0 0.00 0.00 0.00 33 1016.1
20170924212611 91 167 5.0 9.0 0.00 0.00 0.00 33 1016.3
20170924212034 91 169 2.0 8.0 0.00 0.00 0.00 33 1016.3
20170924211509 91 183 1.0 12.0 0.00 0.00 0.00 32 1016.3
20170924210955 91 171 2.0 12.0 0.00 0.00 0.00 32 1016.3
20170924210420 92 153 4.0 8.0 0.00 0.00 0.00 32 1016.3
20170924205826 91 215 4.0 9.0 0.00 0.00 0.00 32 1016.5
20170924205318 91 208 2.0 9.0 0.00 0.00 0.00 31 1016.5
20170924204810 92 207 2.0 8.0 0.00 0.00 0.00 32 1016.5
20170924204307 92 199 2.0 8.0 0.00 0.00 0.00 31 1016.6
20170924203749 92 195 3.0 8.0 0.00 0.00 0.00 31 1016.6